Location: Newark
(21.1200°N, 73.4000°E)
Time: 05:08:16
(UTC+00:00)

Courier 1B Rocket - Pass Details

Date: 26 January 2020
Orbit: 920 x 1202 km, 28.2° (Epoch: 17 February)

Event Time Altitude Azimuth Distance (km) Brightness Sun altitude
Rises 11:59:16 0° 286° (WNW) 3,665 8.8 10.6°
Reaches altitude 10° 12:02:01 10° 282° (WNW) 2,682 8.3 10.1°
Maximum altitude 12:08:17 56° 206° (SSW) 1,091 5.9 8.7°
Drops below altitude 10° 12:14:21 10° 129° (SE) 2,599 7.0 7.4°
Sets 12:16:59 0° 125° (SE) 3,543 7.6 6.9°
